Weather History for KGAG - November, 2013

Change the Weather History Date:

Monday, November 25, 2013

  Actual Average Record
Temperature  
Mean Temperature 29 °F -  
Max Temperature 34 °F 55 °F 82 °F (1981)
Min Temperature 24 °F 30 °F 10 °F (1975)
Degree Days  
Heating Degree Days 36    
Moisture  
Dew Point 25 °F    
Average Humidity 86    
Maximum Humidity 93    
Minimum Humidity 72    
Precipitation  
Precipitation 0.00 in - - ()
Sea Level Pressure  
Sea Level Pressure 30.20 in    
Wind  
Wind Speed 9 mph (South)    
Max Wind Speed 14 mph    
Max Gust Speed 20 mph    
Visibility 9 miles    
Events      
Averages and records for this station are not official NWS values.
T = Trace of Precipitation, MM = Missing Value Source: NWS Daily Summary

Daily Weather History Graph

Daily Weather History Graph

Search for Another Location

Airport or City:

Trip Planner

Search our weather history database for the weather conditions in past years. The results will help you decide how hot, cold, wet, or windy it might be!

Date:

Astronomy

Nov. 25, 2013 Rise Set
Actual Time 7:26 AM CST 5:25 PM CST
Civil Twilight 6:58 AM CST 5:53 PM CST
Nautical Twilight 6:26 AM CST 6:25 PM CST
Astronomical Twilight 5:56 AM CST 6:56 PM CST
Moon No Moon Rise 12:51 PM CST (11/25)
Length of Visible Light 10h 55m
Length of Day
9h 59m
Waning Gibbous, 51% of the Moon is Illuminated
Nov 25
Waning Gibbous
Nov 25
Last Quarter
Dec 2
New
Dec 9
First Quarter
Dec 17
Full

Hourly Weather History & Observations

Time (CST) Temp. Windchill Dew Point Humidity Pressure Visibility Wind Dir Wind Speed Gust Speed Precip Events Conditions
12:53 AM 24.1 °F 13.1 °F 21.0 °F 88% 30.22 in 10.0 mi South 11.5 mph - N/A   Overcast
1:51 AM 24.8 °F 14.0 °F 21.2 °F 86% 30.14 in 10.0 mi South 11.5 mph 19.6 mph N/A   Overcast
1:53 AM 25.0 °F 13.1 °F 21.9 °F 88% 30.20 in 10.0 mi South 13.8 mph - N/A   Overcast
2:53 AM 25.0 °F 16.3 °F 21.9 °F 88% 30.19 in 10.0 mi South 8.1 mph - N/A   Overcast
3:53 AM 26.1 °F 15.0 °F 23.0 °F 88% 30.18 in 10.0 mi South 12.7 mph - N/A   Overcast
4:08 AM 26.6 °F 17.5 °F 23.0 °F 86% 30.13 in 10.0 mi South 9.2 mph - N/A   Overcast
4:17 AM 26.6 °F 16.8 °F 23.0 °F 86% 30.13 in 10.0 mi South 10.4 mph - N/A   Overcast
4:53 AM 26.1 °F 17.6 °F 23.0 °F 88% 30.18 in 10.0 mi South 8.1 mph - N/A   Overcast
5:53 AM 26.1 °F 16.8 °F 24.1 °F 92% 30.17 in 10.0 mi South 9.2 mph - N/A   Overcast
6:53 AM 27.0 °F 18.0 °F 24.1 °F 89% 30.17 in 10.0 mi South 9.2 mph - N/A   Overcast
7:21 AM 26.6 °F 19.1 °F 24.8 °F 93% 30.11 in 9.0 mi SSE 6.9 mph - N/A   Overcast
7:53 AM 27.0 °F 18.0 °F 25.0 °F 92% 30.19 in 8.0 mi South 9.2 mph - N/A   Overcast
8:35 AM 28.4 °F 20.4 °F 24.8 °F 86% 30.13 in 7.0 mi South 8.1 mph - N/A   Overcast
8:42 AM 28.4 °F 19.1 °F 26.6 °F 93% 30.14 in 7.0 mi South 10.4 mph - N/A   Overcast
8:53 AM 28.0 °F 19.3 °F 25.0 °F 88% 30.20 in 7.0 mi SSE 9.2 mph - N/A   Overcast
9:16 AM 28.4 °F 19.1 °F 24.8 °F 86% 30.15 in 8.0 mi SSE 10.4 mph - N/A   Overcast
9:25 AM 28.4 °F 18.5 °F 26.6 °F 93% 30.15 in 8.0 mi South 11.5 mph - N/A   Overcast
9:53 AM 28.9 °F 19.8 °F 26.1 °F 89% 30.22 in 9.0 mi South 10.4 mph - N/A   Overcast
10:05 AM 28.4 °F 19.1 °F 26.6 °F 93% 30.16 in 9.0 mi SSE 10.4 mph - N/A   Overcast
10:53 AM 28.9 °F 23.9 °F 26.1 °F 89% 30.23 in 8.0 mi SSE 4.6 mph - N/A   Overcast
11:53 AM 30.0 °F 26.5 °F 27.0 °F 88% 30.22 in 10.0 mi SE 3.5 mph - N/A   Overcast
12:53 PM 30.9 °F 26.2 °F 27.0 °F 85% 30.21 in 10.0 mi SE 4.6 mph - N/A   Overcast
1:14 PM 32.0 °F - 26.6 °F 80% 30.15 in 10.0 mi Calm Calm - N/A   Overcast
1:53 PM 33.1 °F - 28.0 °F 82% 30.20 in 10.0 mi Calm Calm - N/A   Overcast
2:53 PM 34.0 °F 31.0 °F 27.0 °F 75% 30.20 in 10.0 mi NE 3.5 mph - N/A   Overcast
3:53 PM 34.0 °F 26.0 °F 26.1 °F 73% 30.22 in 10.0 mi North 10.4 mph - N/A   Overcast
4:53 PM 34.0 °F 26.0 °F 27.0 °F 75% 30.24 in 10.0 mi North 10.4 mph - N/A   Overcast
5:53 PM 33.1 °F 26.1 °F 27.0 °F 78% 30.25 in 10.0 mi North 8.1 mph - N/A   Overcast
6:53 PM 33.1 °F 23.9 °F 25.0 °F 72% 30.28 in 10.0 mi North 12.7 mph - N/A   Overcast
7:53 PM 33.1 °F 26.1 °F 26.1 °F 75% 30.29 in 10.0 mi North 8.1 mph - N/A   Overcast
8:43 PM 30.2 °F 23.4 °F 24.8 °F 80% 30.23 in 10.0 mi NNW 6.9 mph - N/A   Scattered Clouds
8:53 PM 28.0 °F 21.7 °F 25.0 °F 88% 30.29 in 10.0 mi NW 5.8 mph - N/A   Clear
9:53 PM 26.1 °F 18.4 °F 23.0 °F 88% 30.29 in 9.0 mi WNW 6.9 mph - N/A   Clear
10:53 PM 25.0 °F 18.1 °F 21.9 °F 88% 30.29 in 10.0 mi NW 5.8 mph - N/A   Clear
11:53 PM 26.1 °F 19.4 °F 24.1 °F 92% 30.29 in 10.0 mi NW 5.8 mph - N/A   Clear